Time,TemperatureF,DewpointF,PressureIn,WindDirection,WindDirectionDegrees,WindSpeedMPH,WindSpeedGustMPH,Humidity,HourlyPrecipIn,Conditions,Clouds,dailyrainin,SoftwareType,DateUTC
2013-01-10 20:35:00,35.2,32.8,29.69,South,190,8.0,8.0,91,0.00,,,0.06,Wunderground v.1.15,2013-01-11 02:35:00,
2013-01-10 20:40:00,35.2,32.8,29.69,South,179,7.0,9.0,91,0.00,,,0.06,Wunderground v.1.15,2013-01-11 02:40:00,
2013-01-10 20:50:00,35.2,32.8,29.70,South,175,7.0,11.0,91,0.00,,,0.06,Wunderground v.1.15,2013-01-11 02:50:00,
2013-01-10 21:00:00,35.2,32.8,29.69,SSE,167,7.0,12.0,91,0.00,,,0.06,Wunderground v.1.15,2013-01-11 03:00:00,
2013-01-10 21:05:00,35.2,32.8,29.69,South,173,7.0,12.0,91,0.00,,,0.06,Wunderground v.1.15,2013-01-11 03:05:00,
2013-01-10 21:15:00,35.2,32.8,29.69,SSW,200,8.0,11.0,91,0.00,,,0.06,Wunderground v.1.15,2013-01-11 03:15:00,
2013-01-10 21:20:00,35.2,32.8,29.69,South,184,8.0,11.0,91,0.00,,,0.06,Wunderground v.1.15,2013-01-11 03:20:00,
2013-01-10 21:30:00,35.2,32.8,29.68,SSW,202,8.0,8.0,91,0.00,,,0.06,Wunderground v.1.15,2013-01-11 03:30:00,
2013-01-10 21:40:00,35.3,32.9,29.68,South,175,10.0,10.0,91,0.00,,,0.06,Wunderground v.1.15,2013-01-11 03:40:00,
2013-01-10 21:45:00,35.3,33.2,29.67,SSW,195,10.0,12.0,92,0.00,,,0.06,Wunderground v.1.15,2013-01-11 03:45:00,
2013-01-10 21:55:00,35.4,33.3,29.67,South,182,8.0,12.0,92,0.00,,,0.06,Wunderground v.1.15,2013-01-11 03:55:00,
2013-01-10 22:00:00,35.4,33.3,29.67,South,182,8.0,8.0,92,0.00,,,0.06,Wunderground v.1.15,2013-01-11 04:00:00,
2013-01-10 22:10:00,35.4,33.3,29.66,SSW,194,10.0,10.0,92,0.00,,,0.06,Wunderground v.1.15,2013-01-11 04:10:00,
2013-01-10 22:20:00,35.4,33.3,29.65,SSW,202,10.0,15.0,92,0.00,,,0.06,Wunderground v.1.15,2013-01-11 04:20:00,
2013-01-10 22:25:00,35.5,33.4,29.64,South,187,10.0,15.0,92,0.00,,,0.06,Wunderground v.1.15,2013-01-11 04:25:00,
2013-01-10 22:35:00,35.5,33.4,29.64,SSW,198,12.0,15.0,92,0.00,,,0.07,Wunderground v.1.15,2013-01-11 04:35:00,
2013-01-10 22:45:00,35.3,33.2,29.63,SSW,194,12.0,15.0,92,0.00,,,0.07,Wunderground v.1.15,2013-01-11 04:45:00,
2013-01-10 22:50:00,35.3,33.2,29.63,SSW,200,12.0,12.0,92,0.00,,,0.07,Wunderground v.1.15,2013-01-11 04:50:00,
2013-01-10 23:05:00,35.2,32.8,29.63,SSW,198,13.0,13.0,91,0.00,,,0.00,Wunderground v.1.15,2013-01-11 05:05:00,
2013-01-10 23:10:00,35.2,32.8,29.63,SSW,200,14.0,18.0,91,0.00,,,0.00,Wunderground v.1.15,2013-01-11 05:10:00,
2013-01-10 23:15:00,35.2,32.8,29.63,SSW,202,16.0,20.0,91,0.00,,,0.00,Wunderground v.1.15,2013-01-11 05:15:00,
2013-01-10 23:20:00,35.1,32.7,29.63,SSW,209,15.0,18.0,91,0.00,,,0.00,Wunderground v.1.15,2013-01-11 05:20:00,
2013-01-10 23:25:00,35.1,32.7,29.63,SSW,196,16.0,18.0,91,0.00,,,0.00,Wunderground v.1.15,2013-01-11 05:25:00,
2013-01-10 23:30:00,35.1,32.7,29.62,SSW,209,16.0,16.0,91,0.00,,,0.00,Wunderground v.1.15,2013-01-11 05:30:00,
2013-01-10 23:40:00,35.0,32.6,29.62,South,187,13.0,13.0,91,0.00,,,0.00,Wunderground v.1.15,2013-01-11 05:40:00,
2013-01-10 23:50:00,35.1,32.7,29.62,South,169,13.0,15.0,91,0.00,,,0.00,Wunderground v.1.15,2013-01-11 05:50:00,